Waarnemingen

Advertentie
Mijn weer
Gibraltar, Groot Brittannië (8495): temperatuur & dauwpunt: 16.11.2019 02:00:00 - 22.11.2019 02:00:00 (CET)Gibraltar, Groot Brittannië (8495): windsnelheid & windstoten: 16.11.2019 02:00:00 - 22.11.2019 02:00:00 (CET)Gibraltar, Groot Brittannië (8495): windrichting: 16.11.2019 02:00:00 - 22.11.2019 02:00:00 (CET)Gibraltar, Groot Brittannië (8495): luchtdruk: 16.11.2019 02:00:00 - 22.11.2019 02:00:00 (CET)Gibraltar, Groot Brittannië (8495): zicht: 16.11.2019 02:00:00 - 22.11.2019 02:00:00 (CET)
Datum & Tijd tt [°C] td [°C] ff [km/u] ff [kn] fx [km/u] fx [kn] dd ppp [hPa] vv [km]
22.11.2019 02:00:00 - - - - - - - - -
22.11.2019 01:00:00 15,4 14,3 18 10 - - ZW 1009,5 9
22.11.2019 00:00:00 15,7 14,2 22 12 - - ZZW 1010,1 15
21.11.2019 23:00:00 15,8 13,7 18 10 - - ZW 1010,4 20
21.11.2019 22:00:00 16,1 13,9 15 8 - - ZW 1010,6 17
21.11.2019 21:00:00 16,1 14,3 16 9 - - ZW 1010,3 25
21.11.2019 20:00:00 15,5 14,3 15 8 - - WZW 1010,1 15
21.11.2019 19:00:00 15,2 14,0 16 9 - - ZW 1010,0 12
21.11.2019 18:00:00 15,6 14,5 16 9 - - ZW 1009,9 15
21.11.2019 17:00:00 15,9 14,4 24 13 - - ZW 1009,7 7
21.11.2019 16:00:00 15,6 14,1 16 9 - - ZZW 1009,5 6
21.11.2019 15:00:00 16,6 13,9 13 7 - - ZW 1009,7 7
21.11.2019 14:00:00 16,8 14,1 18 10 - - ZW 1010,3 15
21.11.2019 13:00:00 16,3 14,0 9 5 - - ZW 1010,8 15
21.11.2019 12:00:00 16,1 13,6 22 12 - - ZW 1011,9 5
21.11.2019 11:00:00 15,2 13,5 15 8 - - ZW 1012,1 7
21.11.2019 10:00:00 15,2 13,3 15 8 - - ZW 1011,9 5
21.11.2019 09:00:00 15,2 12,9 16 9 - - ZW 1011,4 15
21.11.2019 08:00:00 15,4 12,9 16 9 - - ZW 1011,5 15
21.11.2019 07:00:00 15,2 13,0 15 8 - - ZW 1011,1 20
21.11.2019 06:00:00 14,9 12,9 15 8 - - ZW 1011,2 10
21.11.2019 05:00:00 15,1 12,7 21 11 - - WZW 1011,4 16
21.11.2019 04:00:00 15,0 12,0 18 10 - - ZW 1011,5 16
21.11.2019 03:00:00 14,6 12,3 15 8 - - ZW 1011,7 15
21.11.2019 02:00:00 14,1 12,1 11 6 - - ZW 1012,2 14
21.11.2019 01:00:00 14,4 12,3 11 6 - - ZW 1012,6 14
21.11.2019 00:00:00 13,4 11,8 8 4 - - W 1012,9 12
20.11.2019 23:00:00 13,3 11,5 5 3 - - W 1013,1 13
20.11.2019 22:00:00 14,1 11,9 11 6 - - ZW 1012,7 16
20.11.2019 21:00:00 14,3 11,9 16 9 - - ZW 1012,4 16
20.11.2019 20:00:00 14,4 11,7 21 11 - - ZZW 1012,1 17
20.11.2019 19:00:00 13,6 11,7 16 9 - - Z 1011,6 16
20.11.2019 18:00:00 13,8 11,2 11 6 - - ZZW 1011,4 12
20.11.2019 17:00:00 13,8 11,2 8 4 - - ZZW 1011,5 12
20.11.2019 16:00:00 13,1 11,5 9 5 - - ZW 1011,4 8
20.11.2019 15:00:00 13,8 11,6 11 6 - - ZZW 1011,9 10
20.11.2019 14:00:00 14,4 10,7 15 8 - - ZW 1012,9 8
20.11.2019 13:00:00 15,0 10,2 13 7 - - ZZW 1012,8 12
20.11.2019 12:00:00 14,2 10,2 11 6 - - WZW 1013,9 12
20.11.2019 11:00:00 12,7 9,0 5 3 - - W 1014,2 20
20.11.2019 10:00:00 12,0 9,0 5 3 - - W 1013,8 30
20.11.2019 09:00:00 11,0 8,2 5 3 - - WNW 1013,7 30
20.11.2019 08:00:00 10,5 8,0 5 3 - - W 1013,8 30
20.11.2019 07:00:00 10,1 8,5 5 3 - - W 1013,6 30
20.11.2019 06:00:00 10,7 8,9 4 2 - - W 1013,8 30
20.11.2019 05:00:00 11,4 9,0 8 4 - - W 1014,1 19
20.11.2019 04:00:00 11,3 9,1 5 3 - - W 1014,4 18
20.11.2019 03:00:00 11,8 9,8 8 4 - - W 1014,9 14
20.11.2019 02:00:00 11,7 9,8 9 5 - - WZW 1015,2 14
20.11.2019 01:00:00 12,8 10,4 9 5 - - WZW 1015,3 14
20.11.2019 00:00:00 13,0 10,8 4 2 - - WZW 1015,5 15
19.11.2019 23:00:00 14,0 10,5 4 2 - - NW 1016,0 16
19.11.2019 22:00:00 15,0 9,9 4 2 - - WZW 1016,1 16
19.11.2019 21:00:00 14,9 10,7 11 6 - - WNW 1016,1 17
19.11.2019 20:00:00 15,1 10,9 13 7 - - WNW 1016,3 40
19.11.2019 19:00:00 15,2 10,3 11 6 - - W 1016,2 40
19.11.2019 18:00:00 15,6 9,6 15 8 - - W 1016,1 45
19.11.2019 17:00:00 16,3 8,8 18 10 - - W 1016,2 45
19.11.2019 16:00:00 17,5 7,4 11 6 - - WZW 1016,1 50
19.11.2019 15:00:00 16,8 8,9 11 6 - - ZZW 1016,7 50
19.11.2019 14:00:00 17,3 7,6 11 6 - - ZW 1017,2 40
19.11.2019 13:00:00 16,4 8,1 8 4 - - WZW 1018,2 40
19.11.2019 12:00:00 15,0 9,6 8 4 - - WZW 1019,1 40
19.11.2019 11:00:00 13,7 10,0 8 4 - - W 1019,5 30
19.11.2019 10:00:00 12,3 9,5 11 6 - - WZW 1019,6 30
19.11.2019 09:00:00 11,8 9,6 9 5 - - WZW 1019,2 30
19.11.2019 08:00:00 11,9 9,4 8 4 - - WZW 1018,9 30
19.11.2019 07:00:00 11,5 8,8 8 4 - - WZW 1018,7 30
19.11.2019 06:00:00 11,5 8,5 11 6 - - W 1018,4 30
19.11.2019 05:00:00 11,6 8,5 13 7 - - W 1018,1 20
19.11.2019 04:00:00 12,1 9,6 11 6 - - W 1018,3 19
19.11.2019 03:00:00 12,4 9,1 11 6 - - W 1018,3 19
19.11.2019 02:00:00 12,4 8,5 11 6 - - WZW 1018,5 19
19.11.2019 01:00:00 12,4 8,3 15 8 - - ZW 1019,0 20
19.11.2019 00:00:00 12,8 8,0 15 8 - - WNW 1019,0 21
18.11.2019 23:00:00 13,0 7,9 18 10 - - WNW 1018,9 20
18.11.2019 22:00:00 13,1 8,3 18 10 - - WNW 1018,7 20
18.11.2019 21:00:00 13,4 8,6 22 12 - - W 1018,0 19
18.11.2019 20:00:00 13,9 9,3 24 13 - - W 1017,8 18
18.11.2019 19:00:00 14,6 8,3 26 14 - - W 1016,7 70
18.11.2019 18:00:00 15,2 7,9 26 14 - - W 1016,1 70
18.11.2019 17:00:00 15,7 7,3 26 14 - - W 1015,9 70
18.11.2019 16:00:00 15,6 7,1 31 17 46 25 W 1015,6 70
18.11.2019 15:00:00 15,2 7,4 28 15 - - W 1015,4 70
18.11.2019 14:00:00 14,8 7,2 26 14 - - W 1015,7 50
18.11.2019 13:00:00 14,2 6,4 28 15 - - W 1016,0 50
18.11.2019 12:00:00 13,3 6,5 26 14 - - W 1016,4 50
18.11.2019 11:00:00 12,2 7,0 26 14 - - W 1016,2 50
18.11.2019 10:00:00 11,3 7,5 26 14 - - W 1016,1 50
18.11.2019 09:00:00 10,7 7,2 26 14 52 28 W 1015,1 50
18.11.2019 08:00:00 11,1 7,0 34 18 57 31 W 1014,0 40
18.11.2019 07:00:00 12,6 8,3 29 16 59 32 WNW 1013,1 25
18.11.2019 06:00:00 14,0 9,3 34 18 59 32 W 1012,4 25
18.11.2019 05:00:00 15,5 13,6 42 23 54 29 W 1012,1 14
18.11.2019 04:00:00 15,7 12,9 48 26 59 32 W 1012,8 7
18.11.2019 03:00:00 16,5 13,2 44 24 57 31 W 1013,0 15
18.11.2019 02:00:00 16,8 13,2 39 21 54 29 WZW 1014,1 15
18.11.2019 01:00:00 15,4 13,8 31 17 - - ZW 1015,0 14
18.11.2019 00:00:00 15,0 13,3 31 17 48 26 ZW 1015,6 16
17.11.2019 23:00:00 15,3 13,3 31 17 50 27 ZW 1016,3 15
17.11.2019 22:00:00 14,9 13,0 37 20 52 28 ZW 1016,5 10
17.11.2019 21:00:00 14,7 13,1 35 19 54 29 ZW 1017,4 15
17.11.2019 20:00:00 14,5 13,0 28 15 52 28 ZW 1017,8 20
17.11.2019 19:00:00 14,7 12,6 24 13 48 26 ZW 1018,2 30
17.11.2019 18:00:00 14,9 12,0 24 13 - - ZW 1018,2 30
17.11.2019 17:00:00 14,6 11,6 26 14 - - WZW 1018,6 12
17.11.2019 16:00:00 15,7 9,9 26 14 - - WZW 1018,7 30
17.11.2019 15:00:00 15,0 9,9 26 14 54 29 WZW 1019,1 30
17.11.2019 14:00:00 15,3 9,1 34 18 54 29 WZW 1019,4 30
17.11.2019 13:00:00 14,3 9,5 22 12 46 25 WZW 1020,6 30
17.11.2019 12:00:00 14,3 8,7 26 14 - - WZW 1021,5 20
17.11.2019 11:00:00 14,6 8,5 21 11 - - WZW 1021,5 20
17.11.2019 10:00:00 12,8 7,9 15 8 - - W 1021,4 40
17.11.2019 09:00:00 11,8 6,9 11 6 - - W 1021,1 40
17.11.2019 08:00:00 11,7 7,1 13 7 - - WZW 1020,6 50
17.11.2019 07:00:00 12,0 7,7 13 7 - - WNW 1020,2 30
17.11.2019 06:00:00 12,8 8,0 15 8 - - WZW 1019,9 30
17.11.2019 05:00:00 12,1 8,4 18 10 - - W 1020,2 20
17.11.2019 04:00:00 12,2 7,5 16 9 - - W 1020,5 21
17.11.2019 03:00:00 11,8 7,6 15 8 - - WZW 1020,3 21
17.11.2019 02:00:00 11,7 6,5 18 10 - - W 1020,6 21
17.11.2019 01:00:00 12,0 5,9 13 7 - - ZW 1020,8 21
17.11.2019 00:00:00 11,8 6,2 15 8 - - W 1021,1 22
16.11.2019 23:00:00 11,5 5,6 13 7 - - W 1021,0 20
16.11.2019 22:00:00 11,7 5,3 18 10 - - W 1020,8 20
16.11.2019 21:00:00 11,7 5,0 16 9 - - W 1020,4 20
16.11.2019 20:00:00 12,1 5,3 21 11 - - W 1019,9 40
16.11.2019 19:00:00 12,9 5,3 24 13 - - WZW 1019,0 40
16.11.2019 18:00:00 14,0 5,9 31 17 - - WZW 1018,5 40
16.11.2019 17:00:00 14,6 5,2 28 15 46 25 WZW 1018,0 40
16.11.2019 16:00:00 14,9 3,8 26 14 - - W 1017,4 50
16.11.2019 15:00:00 14,6 4,4 26 14 - - W 1017,1 60
16.11.2019 14:00:00 13,9 3,3 26 14 - - W 1017,2 60
16.11.2019 13:00:00 13,7 3,2 24 13 50 27 W 1017,4 70
16.11.2019 12:00:00 13,0 3,8 26 14 - - W 1017,7 70
16.11.2019 11:00:00 11,9 2,9 26 14 - - W 1017,2 70
16.11.2019 10:00:00 9,9 2,9 15 8 - - W 1016,7 60
16.11.2019 09:00:00 8,1 2,8 13 7 - - W 1015,9 60
16.11.2019 08:00:00 8,4 2,9 15 8 - - WNW 1014,7 50
16.11.2019 07:00:00 8,6 3,1 18 10 - - W 1013,8 50
16.11.2019 06:00:00 8,8 2,9 26 14 - - W 1013,3 19
16.11.2019 05:00:00 9,2 2,6 24 13 - - W 1012,7 19
16.11.2019 04:00:00 9,3 2,8 26 14 - - W 1012,5 19
16.11.2019 03:00:00 10,3 3,0 28 15 - - W 1012,3 20
16.11.2019 02:00:00 10,8 3,5 24 13 - - W 1012,1 20

tt = temperatuur
td = dauwpunt
ff = windsnelheid
fx = windstoten
dd = windrichting
ppp = luchtdruk
vv = zicht

Weerstations in de omgeving